Location: Newark
(52.3500°N, 175.9667°E)
Time: 21:57:34
(UTC+00:00)

Transit 4A - Pass Details

Date: 25 April 2021
Orbit: 871 x 974 km, 66.8° (Epoch: 16 May)

Event Time Altitude Azimuth Distance (km) Brightness Sun altitude
Rises 20:56:08 0° 309° (NW) 3,502 10.4 34.8°
Reaches altitude 10° 21:00:26 10° 280° (W) 2,538 9.8 35.4°
Maximum altitude 21:02:26 12° 259° (W) 2,399 9.8 35.7°
Drops below altitude 10° 21:04:26 10° 239° (WSW) 2,522 10.0 35.9°
Sets 21:08:41 0° 209° (SSW) 3,448 10.9 36.5°
